Flag for Germany Weather past 2 weeks in Trier, Rhineland-Palatinate, Germany

Now
49 °F

Scattered clouds.


Feels Like: 46 °F
Forecast: 41 / 52 °F
Wind: 8 mph from Northwest

Location: Trier-Petrisberg

Current Time: Mar 30, 2015 at 7:42:14 PM

Latest Report: Mar 30, 2015 at 7:00 PM


Visibility: 28 mi

Pressure: 29.91 "Hg

Humidity: 41%

Dew point: 27 °F

Location of TrierLocation

Historic Weather in Trier — Graph

°F

Trier temperature yesterday

Maximum temperature yesterday: 52 °F (at 12:00 AM)
Minimum temperature yesterday: 47 °F (at 10:00 AM)
Average temperature yesterday: 50 °F

Past Weeks' High & Low Weather Summary

 TemperatureHumidityPressure
High66 °F (Mar 18, 4:00 PM)99% (Mar 21, 6:00 AM)30.35 "Hg (Mar 21, 6:00 AM)
Low29 °F (Mar 23, 7:00 AM)30% (Mar 18, 5:00 PM)29.50 "Hg (Mar 29, 6:00 PM)
Average44 °F79%30.04 "Hg
* Reported Mar 15 5:00 PM — Mar 30 6:00 PM, Trier, Weather by CustomWeather, © 2015

Note: Actual official high and low records may vary slightly from our data, if they occured in-between our weather recording intervals... More about our weather records

Advertising

Trier weather history for previous 24 hours

 ConditionsComfort  
Time TempWeatherWind HumidityBarometerVisibility
6:00 PM
Mon, Mar 30
51 °FPartly sunny.5 mph42%29.88 "Hg31 mi
5:00 PM49 °FOvercast.7 mph45%29.87 "Hg31 mi
4:00 PM49 °FOvercast.7 mph49%29.85 "Hg34 mi
3:00 PM49 °FOvercast.9 mph47%29.83 "Hg34 mi
2:00 PM49 °FOvercast.7 mph54%29.79 "Hg28 mi
1:00 PM48 °FOvercast.7 mph56%29.78 "Hg28 mi
12:00 PM44 °FOvercast.7 mph70%29.76 "Hg25 mi
11:00 AM45 °FLight rain. Overcast.8 mph72%29.72 "Hg19 mi
10:00 AM44 °FScattered clouds.7 mph80%29.70 "Hg25 mi
9:00 AM43 °FSprinkles. Overcast.7 mph85%29.67 "Hg19 mi
8:00 AM44 °FPartly sunny.6 mph81%29.63 "Hg25 mi
7:00 AM44 °FOvercast.2 mph86%29.61 "Hg25 mi
6:00 AM44 °FOvercast.6 mph81%29.58 "Hg25 mi
4:00 AM47 °FLight rain. Passing clouds.9 mph82%29.54 "Hg19 mi
3:00 AM47 °FDrizzle. Overcast.9 mph86%29.55 "Hg22 mi
2:00 AM44 °FLight freezing rain. Overcast.3 mph88%29.57 "Hg19 mi
1:00 AM44 °FDrizzle. Overcast.6 mph89%29.57 "Hg43 mi
12:00 AM51 °FOvercast.9 mph75%29.53 "Hg40 mi
11:00 PM
Sun, Mar 29
51 °FOvercast.13 mph78%29.50 "Hg43 mi
10:00 PM51 °FOvercast.10 mph86%29.50 "Hg43 mi
9:00 PM51 °FLight rain. Overcast.13 mph91%29.50 "Hg25 mi
8:00 PM51 °FLight rain. Overcast.13 mph94%29.50 "Hg19 mi
7:00 PM50 °FRain. Overcast.12 mph95%29.50 "Hg5 mi
Weather by CustomWeather, © 2015

See weather overviewHow to use our weather pages